EW8436 Weather Reports


time (UTC)temp
F
wind
direction
speed
knots
gust
knots
rain 1hr
in
rain 24hr
in
rain mn
in
humidity
%
barometer
mb
20260504214538 71 360 1.7 13.9 0.00 0.01 0.01 54 1006.9
20260504213033 71 360 2.6 10.4 0.00 0.01 0.01 53 1006.9
20260504211535 71 360 1.7 8.7 0.00 0.01 0.01 54 1007.2
20260504210034 71 360 1.7 13.0 0.00 0.01 0.01 57 1007.4
20260504204612 70 360 0.0 9.6 0.00 0.01 0.01 59 1007.6
20260504203035 69 360 2.6 8.7 0.00 0.01 0.01 60 1007.5
20260504201534 68 360 2.6 10.4 0.00 0.01 0.01 63 1007.6
20260504200038 65 360 0.0 4.3 0.01 0.01 0.01 68 1007.9
20260504194545 65 267 0.9 4.3 0.01 0.01 0.01 68 1008.8
20260504193033 65 232 0.9 7.0 0.01 0.01 0.01 66 1008.6
20260504191534 65 360 3.5 10.4 0.01 0.01 0.01 65 1009.4
20260504190037 67 360 1.7 12.2 0.00 0.00 0.00 61 1008.9
20260504184537 68 250 1.7 11.3 0.00 0.00 0.00 60 1008.4
20260504183034 68 360 2.6 16.5 0.00 0.00 0.00 63 1008.1
20260504181534 68 167 2.6 10.4 0.00 0.00 0.00 61 1008.0
20260504180036 67 235 1.7 8.7 0.00 0.00 0.00 62 1008.2
20260504174539 67 185 0.0 7.8 0.00 0.00 0.00 62 1008.0
20260504173032 66 360 2.6 13.0 0.00 0.00 0.00 66 1008.2
20260504171542 64 183 0.9 10.4 0.00 0.00 0.00 63 1008.3
20260504081536 50 202 1.7 7.0 0.00 0.00 0.00 67 1010.7
20260504044540 53 0 1.7 7.8 0.00 0.00 0.00 61 1012.3
20260504043038 53 165 0.9 6.1 0.00 0.00 0.00 61 1012.4
20260504041533 53 188 1.7 7.8 0.00 0.00 0.00 60 1012.6
20260504040035 53 0 0.9 7.8 0.00 0.00 0.00 60 1012.7
20260504034541 53 185 0.9 4.3 0.00 0.00 0.00 62 1012.9
20260504033036 52 214 0.0 4.3 0.00 0.00 0.00 61 1013.0
20260504031532 53 198 0.0 3.5 0.00 0.00 0.00 60 1013.1
20260504030039 53 0 0.0 3.5 0.00 0.00 0.00 60 1013.3
20260504024532 53 0 0.0 3.5 0.00 0.00 0.00 59 1013.6
20260504023034 52 0 0.0 2.6 0.00 0.00 0.00 65 1013.7
20260504021537 51 0 0.0 1.7 0.00 0.00 0.00 67 1013.6
20260504020036 51 0 0.0 0.0 0.00 0.00 0.00 73 1013.5
20260504014548 51 0 0.0 0.0 0.00 0.00 0.00 73 1013.4
20260504013034 51 0 0.0 1.7 0.00 0.00 0.00 72 1013.4
20260504011535 51 0 0.0 5.2 0.00 0.00 0.00 71 1013.6
20260504010033 51 0 0.0 3.5 0.00 0.00 0.00 72 1013.7
20260504004532 51 0 0.0 2.6 0.00 0.00 0.00 72 1013.5
20260504003038 51 0 0.0 1.7 0.00 0.00 0.00 72 1013.2
20260504001535 51 109 0.0 1.7 0.00 0.00 0.00 71 1012.9
20260504000035 51 138 0.0 2.6 0.00 0.00 0.00 70 1012.8
20260503234547 52 101 0.9 3.5 0.00 0.00 0.00 69 1013.0
20260503233033 52 101 0.0 5.2 0.00 0.00 0.00 66 1013.5
20260503231533 53 115 0.9 3.5 0.00 0.00 0.00 65 1013.8
20260503230039 53 38 0.0 2.6 0.00 0.00 0.00 62 1014.1
20260503224533 54 0 0.0 3.5 0.00 0.00 0.00 64 1014.1
20260503223035 54 42 0.0 3.5 0.00 0.00 0.00 61 1014.5
20260503221538 53 29 0.9 3.5 0.00 0.00 0.00 61 1014.5
20260503220043 52 346 0.0 2.6 0.00 0.00 0.00 65 1014.6